Regional Weather Roundup
Issued by NWS Sterling, VA

Home | Current Version | Previous Version | Text Only | Print | Product List | Glossary On
Versions: 1 2 3 4 5 6 7 8 9 10 11 12 13 14 15 16 17 18 19 20 21 22 23 24 25 26 27 28 29 30 31 32 33 34 35 36 37 38 39 40 41 42 43 44 45 46 47 48 49 50
000
ASUS41 KLWX 022310
RWRLWX

REGIONAL WEATHER ROUNDUP
NATIONAL WEATHER SERVICE BALTIMORE MD/WASHINGTON DC
600 PM EST FRI DEC 02 2016

Note: "FAIR" indicates few or no clouds below 12,000 feet
with no significant weather and/or obstructions to visibility.
 TC=TEMPERATURE CELSIUS

 * =Non NWS site. Station does not report precipitation (e.g. rain,
    snow, etc.), thunder, or fog.

DCZ001-MDZ009-015-VAZ040>042-051-053>054-030000-
WASHINGTON METRO

CITY           SKY/WX    TMP DP  RH WIND       PRES   REMARKS
WASHINGTON NAT PTCLDY    46  29  51 NW15G22   30.09R
DULLES         CLOUDY    43  28  55 NW16G22   30.09R
ANDREWS AFB    CLEAR     44  28  53 NW17G24   30.06R
FT BELVOIR     CLEAR     45  28  53 NW16      30.08R
QUANTICO       CLEAR     46  28  49 N12G23    30.09R
COLLEGE PARK*  CLEAR     43  28  56 NW12G23   30.07S
LEESBURG*      CLOUDY    43  32  65 NW16G22   30.10S
MANASSAS*      CLEAR     43  30  61 N13G18    30.09R
GAITHERSBURG*  CLOUDY    41  25  52 W12       30.12R

$$

MDZ006>007-011-014-030000-
BALTIMORE METRO

CITY           SKY/WX    TMP DP  RH WIND       PRES   REMARKS
BWI AIRPORT    MOCLDY    44  29  55 W10       30.06R
MD SCIENCE CTR   N/A     45  27  49 MISG      30.06R
ANNAPOLIS      CLEAR     47  31  53 NW10      30.06R
FORT MEADE*    PTCLDY    41  30  65 NW10G17   30.09R

$$

MDZ012-015-019>023-030000-
MARYLAND EASTERN SHORE

CITY           SKY/WX    TMP DP  RH WIND       PRES   REMARKS
OCEAN CITY     CLEAR     40  31  70 CALM      30.03R
SALISBURY      PTCLDY    44  31  60 NW6       30.03R
BAY BRIDGE AP* PTCLDY    45  30  57 NW17G26   30.06S
CAMBRIDGE*     CLEAR     45  32  61 NW9G16    30.04R
EASTON*        CLEAR     46  28  49 NW14      30.08R

$$

MDZ017>025-030000-
SOUTHERN MARYLAND

CITY           SKY/WX    TMP DP  RH WIND       PRES   REMARKS
PATUXENT RIVER PTCLDY    48  30  49 N16       30.05R
ST INIGOES     CLEAR     43  34  70 CALM      30.04R
LEONARDTOWN*   CLEAR     46  32  57 CALM      30.06R

$$

MDZ003>005-030000-
NORTH CENTRAL MARYLAND

CITY           SKY/WX    TMP DP  RH WIND       PRES   REMARKS
FREDERICK*     CLOUDY    43  30  61 W9        30.11R
HAGERSTOWN APT CLOUDY    42  27  55 W10G22    30.06R
WESTMINSTER*   CLOUDY    39  27  60 W13       30.04S

$$

MDZ501>502-030000-
WESTERN MARYLAND

CITY           SKY/WX    TMP DP  RH WIND       PRES   REMARKS
OAKLAND*       CLOUDY    28  28 100 W16G25    30.03R FOG     WCI  17
CUMBERLAND*    NOT AVBL

$$

VAZ025>031-030000-
SHENANDOAH VALLEY

CITY           SKY/WX    TMP DP  RH WIND       PRES   REMARKS
WINCHESTER*    CLOUDY    37  28  70 NW18G25   30.10R WCI  27
FRONT ROYAL*   CLOUDY    41  30  65 NW8       30.10R
LURAY*         CLOUDY    41  32  70 NW7       30.10R
NEW MARKET*    CLOUDY    40  26  57 NW6       30.10R
STAUNTON*      CLOUDY    40  28  60 NW7       30.11R
WAYNESBORO*    FAIR      39  27  63 W9G18     30.08R

$$

WVZ021-048>050-054>055-030000-
EASTERN WEST VIRGINIA PANHANDLE

CITY           SKY/WX    TMP DP  RH WIND       PRES   REMARKS
MARTINSBURG    CLOUDY    41  26  55 W10       30.09R
PETERSBURG*    CLOUDY    40  28  63 W12G17    30.14R

$$

VAZ036>039-050-030000-
CENTRAL FOOTHILLS

CITY           SKY/WX    TMP DP  RH WIND       PRES   REMARKS
CHARLOTTESVILL PTCLDY    46  29  51 VRB3      30.08R
CULPEPER*      CLOUDY    45  32  60 N6        30.09R
ORANGE*          N/A     45  32  61 CALM      30.09R
GORDONSVILLE*  FAIR      47  30  52 W5        30.07R
WARRENTON*     FAIR      43  27  52 NW10      30.07R

$$

VAZ055>057-030000-
NORTH AND CENTRAL PIEDMONT

CITY           SKY/WX    TMP DP  RH WIND       PRES   REMARKS
FREDERICKSBRG* PTCLDY    47  32  55 N9        30.07R
STAFFORD*      PTCLDY    44  30  59 N8        30.12R

$$

NCZ024-NYZ072-PAZ021-071-VAZ022-071-030000-
OTHER REGIONAL OBSERVATIONS

CITY           SKY/WX    TMP DP  RH WIND       PRES   REMARKS
NEW YORK CITY  CLEAR     48  26  42 W10G20    29.90S
PHILADELPHIA   MOCLDY    45  27  49 W21G28    29.99R
PITTSBURGH     FLURRIES  39  31  72 W12       30.09R
ROANOKE        PTCLDY    45  29  53 NW21      30.13R
RICHMOND       PTCLDY    45  31  58 SW6       30.05S
RALEIGH        PTCLDY    47  29  49 W5        30.11R

$$

ANZ530>537-030000-
MARINE OBSERVATIONS

STATION/POSITION TIME  TEMP    WIND        PRES
                       AIR SEA DIR/SP/G
                 (UTC) (F)     (DEG/KT/KT) (MB)
THOMAS PT LIGHT  2300   45 50  310/ 13/ 14   N/A

$$




USA.gov is the U.S. government's official web portal to all federal, state and local government web resources and services.